Showing default

SJ-17, 41838

Orbit data source: Space-Track

SJ-17, 41838 is a Chinese payload satellite in GEO that was launched on Thu, 03 Nov 2016 UTC via a CHANG ZHENG 5/YZ-2 launch vehicle from the Wenchang Satellite Launch Center (WSC). Payload-class satellites include a variety of spacecraft equipped with specific instruments for various scientific and technological missions. These include communications satellites like Starlink; space stations such as the ISS; scientific satellites like the Hubble; Earth observation satellites from companies like Planet Labs, Umbra, and HawkEye 360; GPS; miniature CubeSats for education and research; and military/defense satellites.

Not visible in the next 10 days
Identifier
41838, 2016-065A
Orbit
GEO
Country
Flag of CNCN / PRC
Related business
Manufacturer
CAST
Mission
Operational Civil Technology
Bus & Motor
DFH-4?, Unknown motor
Mass
~3,000 kg wet, ~2,500 kg dry
Launch date (UTC)
2016-11-03 (9 years ago)
Launch vehicle
CHANG ZHENG 5/YZ-2
Launch site
Wenchang Satellite Launch Center (WSC)
Object type
Payload
Rocket body
Debris
Shape & HBR
Box + 2 Pan, 5.0 m
Radar Cross Section
14.304 m², Large (>1 m²)

Expand to show TLE details & history
Last TLE update: 16 hours ago

TLE from 16 hours ago
0 SJ-17
1 41838U 16065A   25290.75126191  .00000060  00000-0  00000+0 0  9997
2 41838   5.1334  75.5141 0002067 199.7842 203.6737  1.00272183 32782
Epoch: 2025-10-17T18:01Z
TLE epoch observation values (Epoch: 2025-10-17T18:01:49.029Z)
Latitude
3.50838°
Longitude
-178.11999°
Altitude
35,793.545 km
Speed
3.074 km/s
True Right ascension
07h 55m 18s
True Declination
3° 30' 17"
Sunlit
Object was in daylight at epoch
Visualization orbit readout
Latitude
Unknown
Longitude
Unknown
Altitude
Unknown
Speed
Unknown
Apparent Right ascension
Unknown
Apparent Declination
Unknown
Sunlit
N/A
Visualization observer readout
Local Sidereal Time
04:37:48
Azimuth
Unknown
Elevation
Unknown
Doppler factor
Unknown
Orbital elements
Apogee altitude
35,796.257 km
Perigee altitude
35,778.826 km
Semi-major axis
42,165.678 km
Eccentricity
0.00021
Inclination
5.1334°
RAAN
75.5141°
Arg. of periapsis
199.7842°
True anomaly
203.66419°
Mean anomaly
203.6737°
Eccentric anomaly
203.66895°
Mean motion
0.25067 °/min
Orbital period
1,436.14 mins
BSTAR
0
Loading maneuver chart data...
Computing Atmospheric mass density...
Loading historical data...
Loading historical data...
Loading historical data...
Loading historical data...
Loading historical data...
Loading historical data...
Loading historical data...
Other satellites on launch #65 in the year 2016 (2016-11-03 UTC)

Documentation

Showing up to 5 results
|